Weather History for Sisseton, SD

Change the Weather History Date:

Friday, August 16, 2013

  Actual Average Record
Temperature  
Mean Temperature 65 °F 69 °F  
Max Temperature 77 °F 81 °F 101 °F (1988)
Min Temperature 52 °F 58 °F 45 °F (1981)
Degree Days  
Heating Degree Days 0 1  
Month to date heating degree days 23 7  
Since 1 June heating degree days 118 82  
Since 1 July heating degree days 49 20  
Cooling Degree Days 0 5  
Month to date cooling degree days 14 95  
Year to date cooling degree days 362 417  
Since 1 June cooling degree days 337 394  
Growing Degree Days 15 (Base 50)    
Moisture  
Dew Point 57 °F    
Average Humidity 75    
Maximum Humidity 100    
Minimum Humidity 50    
Precipitation  
Precipitation 0.00 in 0.06 in 1.05 in (1983)
Month to date precipitation 0.64 1.32  
Year to date precipitation 18.36 15.62  
Sea Level Pressure  
Sea Level Pressure 30.09 in    
Wind  
Wind Speed 6 mph (SSW)    
Max Wind Speed 14 mph    
Max Gust Speed 20 mph    
T = Trace of Precipitation, MM = Missing Value Source: NWS Daily Summary

Daily Weather History Graph

Daily Weather History Graph

Search for Another Location

Airport:

Trip Planner

Search our weather history database for the weather conditions in past years. The results will help you decide how hot, cold, wet, or windy it might be!

Date:

Astronomy

Aug. 16, 2013 Rise Set
Actual Time 6:29 AM CDT 8:33 PM CDT
Civil Twilight 5:57 AM CDT 9:05 PM CDT
Nautical Twilight 5:17 AM CDT 9:45 PM CDT
Astronomical Twilight 4:33 AM CDT 10:29 PM CDT
Moon 4:59 PM CDT (8/16) 1:27 AM CDT (8/16)
Length of Visible Light 15h 08m
Length of Day
14h 03m
Waxing Gibbous, 75% of the Moon is Illuminated
Aug 16
Waxing Gibbous
Aug 20
Full
Aug 28
Last Quarter
Sep 5
New
Sep 12
First Quarter

Hourly Weather History & Observations

Time (CDT) Temp. Dew Point Humidity Pressure Visibility Wind Dir Wind Speed Gust Speed Precip Events Conditions
12:56 AM 61.0 °F 57.9 °F 90% 30.09 in - WSW 6.9 mph - N/A   Unknown
1:56 AM 60.1 °F 57.9 °F 93% 30.09 in - SW 4.6 mph - N/A   Unknown
2:56 AM 55.9 °F 55.0 °F 97% 30.09 in - Calm Calm - N/A   Unknown
3:56 AM 59.0 °F 55.9 °F 90% 30.08 in - West 4.6 mph - N/A   Unknown
4:56 AM 57.9 °F 55.9 °F 93% 30.09 in - West 3.5 mph - N/A   Unknown
5:56 AM 57.0 °F 55.9 °F 96% 30.09 in - Calm Calm - N/A   Unknown
6:56 AM 53.1 °F 52.0 °F 96% 30.11 in - SE 4.6 mph - N/A   Unknown
7:56 AM 57.0 °F 55.9 °F 96% 30.12 in - SE 3.5 mph - N/A   Unknown
8:56 AM 64.0 °F 60.1 °F 87% 30.13 in - South 3.5 mph - N/A   Unknown
9:56 AM 69.1 °F 61.0 °F 75% 30.12 in - SSW 5.8 mph - N/A   Unknown
10:56 AM 71.1 °F 59.0 °F 66% 30.12 in - South 9.2 mph - N/A   Unknown
11:56 AM 73.0 °F 57.0 °F 57% 30.12 in - SSW 9.2 mph - N/A   Unknown
12:56 PM 75.0 °F 57.0 °F 53% 30.11 in - South 10.4 mph 19.6 mph N/A   Unknown
1:56 PM 75.9 °F 57.9 °F 54% 30.09 in - South 9.2 mph - N/A   Unknown
2:56 PM 77.0 °F 57.9 °F 52% 30.09 in - South 9.2 mph - N/A   Unknown
3:56 PM 75.0 °F 57.9 °F 55% 30.08 in - South 11.5 mph 16.1 mph N/A   Unknown
4:56 PM 73.9 °F 57.0 °F 55% 30.08 in - SSW 9.2 mph - N/A   Unknown
5:56 PM 73.9 °F 57.9 °F 57% 30.08 in - South 6.9 mph - N/A   Unknown
6:56 PM 73.0 °F 57.0 °F 57% 30.08 in - South 9.2 mph - N/A   Unknown
7:56 PM 70.0 °F 59.0 °F 68% 30.07 in - SSW 5.8 mph - N/A   Unknown
8:56 PM 64.0 °F 59.0 °F 84% 30.08 in - SW 4.6 mph - N/A   Unknown
9:56 PM 60.1 °F 57.0 °F 90% 30.09 in - South 4.6 mph - N/A   Unknown
10:56 PM 57.9 °F 55.9 °F 93% 30.09 in - South 5.8 mph - N/A   Unknown
11:56 PM 59.0 °F 57.0 °F 93% 30.09 in - South 8.1 mph - N/A   Unknown